Time,TemperatureF,DewpointF,PressureIn,WindDirection,WindDirectionDegrees,WindSpeedMPH,WindSpeedGustMPH,Humidity,HourlyPrecipIn,Conditions,Clouds,dailyrainin,SoftwareType,DateUTC
2013-02-10 00:01:00,41.8,39.1,29.71,East,94,2.0,5.0,90,0.00,,,0.00,Wunderground v.1.15,2013-02-10 06:01:00,
2013-02-10 00:06:00,41.7,39.3,29.71,South,178,4.0,7.0,91,0.00,,,0.00,Wunderground v.1.15,2013-02-10 06:06:00,
2013-02-10 00:12:00,41.8,39.4,29.72,South,171,2.0,5.0,91,0.00,,,0.00,Wunderground v.1.15,2013-02-10 06:12:00,
2013-02-10 00:18:00,41.9,39.7,29.72,ESE,121,5.0,5.0,92,0.00,,,0.00,Wunderground v.1.15,2013-02-10 06:18:00,
2013-02-10 00:23:00,42.2,40.0,29.72,SSE,151,6.0,7.0,92,0.00,,,0.00,Wunderground v.1.15,2013-02-10 06:23:00,
2013-02-10 00:29:00,42.4,40.2,29.73,SSE,165,5.0,5.0,92,0.00,,,0.00,Wunderground v.1.15,2013-02-10 06:29:00,
2013-02-10 00:35:00,42.5,40.3,29.73,SSW,193,3.0,8.0,92,0.00,,,0.00,Wunderground v.1.15,2013-02-10 06:35:00,
2013-02-10 00:41:00,42.5,40.3,29.71,SE,142,4.0,4.0,92,0.00,,,0.00,Wunderground v.1.15,2013-02-10 06:41:00,
2013-02-10 00:46:00,42.5,40.3,29.71,SE,141,2.0,4.0,92,0.00,,,0.00,Wunderground v.1.15,2013-02-10 06:46:00,
2013-02-10 00:52:00,42.4,40.5,29.70,SE,143,8.0,8.0,93,0.00,,,0.00,Wunderground v.1.15,2013-02-10 06:52:00,
2013-02-10 00:58:00,42.4,40.5,29.70,SSE,156,3.0,8.0,93,0.00,,,0.00,Wunderground v.1.15,2013-02-10 06:58:00,
2013-02-10 01:04:00,42.4,40.5,29.69,SE,146,4.0,8.0,93,0.00,,,0.00,Wunderground v.1.15,2013-02-10 07:04:00,
2013-02-10 01:10:00,42.5,40.6,29.68,ESE,117,3.0,5.0,93,0.00,,,0.00,Wunderground v.1.15,2013-02-10 07:10:00,
2013-02-10 01:15:00,42.5,40.6,29.68,SE,135,5.0,9.0,93,0.00,,,0.00,Wunderground v.1.15,2013-02-10 07:15:00,
2013-02-10 01:21:00,42.5,40.9,29.67,ESE,119,3.0,5.0,94,0.00,,,0.00,Wunderground v.1.15,2013-02-10 07:21:00,
2013-02-10 01:27:00,42.5,40.9,29.67,SSE,164,5.0,7.0,94,0.00,,,0.00,Wunderground v.1.15,2013-02-10 07:27:00,
2013-02-10 01:32:00,42.5,40.9,29.68,South,170,4.0,7.0,94,0.00,,,0.00,Wunderground v.1.15,2013-02-10 07:32:00,
2013-02-10 01:38:00,42.4,40.8,29.68,SSE,150,4.0,7.0,94,0.00,,,0.00,Wunderground v.1.15,2013-02-10 07:38:00,
2013-02-10 01:44:00,42.4,40.8,29.67,SSE,152,4.0,4.0,94,0.00,,,0.00,Wunderground v.1.15,2013-02-10 07:44:00,
2013-02-10 01:49:00,42.4,40.8,29.66,South,187,6.0,6.0,94,0.00,,,0.00,Wunderground v.1.15,2013-02-10 07:49:00,
2013-02-10 01:55:00,42.4,40.8,29.66,SSE,161,3.0,6.0,94,0.00,,,0.00,Wunderground v.1.15,2013-02-10 07:55:00,
2013-02-10 02:01:00,42.4,40.8,29.65,SSE,152,3.0,3.0,94,0.00,,,0.00,Wunderground v.1.15,2013-02-10 08:01:00,
2013-02-10 02:06:00,42.4,40.8,29.64,South,174,6.0,8.0,94,0.00,,,0.00,Wunderground v.1.15,2013-02-10 08:06:00,
2013-02-10 02:11:00,42.5,41.2,29.64,South,176,2.0,4.0,95,0.00,,,0.00,Wunderground v.1.15,2013-02-10 08:11:00,
2013-02-10 02:16:00,42.6,41.3,29.63,SSE,155,6.0,6.0,95,0.00,,,0.00,Wunderground v.1.15,2013-02-10 08:16:00,
2013-02-10 02:21:00,42.6,41.0,29.64,ENE,78,3.0,6.0,94,0.00,,,0.00,Wunderground v.1.15,2013-02-10 08:21:00,
2013-02-10 02:26:00,42.6,41.0,29.61,ESE,116,2.0,8.0,94,0.00,,,0.00,Wunderground v.1.15,2013-02-10 08:26:00,
2013-02-10 02:31:00,42.6,41.0,29.62,SSW,192,1.0,3.0,94,0.00,,,0.00,Wunderground v.1.15,2013-02-10 08:31:00,
2013-02-10 02:36:00,42.5,41.2,29.61,SSE,158,2.0,7.0,95,0.00,,,0.00,Wunderground v.1.15,2013-02-10 08:36:00,
2013-02-10 02:41:00,42.5,41.2,29.61,East,101,3.0,7.0,95,0.00,,,0.00,Wunderground v.1.15,2013-02-10 08:41:00,
2013-02-10 02:46:00,42.5,41.2,29.61,ESE,109,2.0,7.0,95,0.00,,,0.00,Wunderground v.1.15,2013-02-10 08:46:00,
2013-02-10 02:51:00,42.6,41.3,29.61,East,101,5.0,5.0,95,0.00,,,0.00,Wunderground v.1.15,2013-02-10 08:51:00,
2013-02-10 02:56:00,42.7,41.4,29.61,SSE,153,1.0,8.0,95,0.00,,,0.00,Wunderground v.1.15,2013-02-10 08:56:00,
2013-02-10 03:01:00,42.8,41.5,29.60,ESE,107,2.0,6.0,95,0.00,,,0.00,Wunderground v.1.15,2013-02-10 09:01:00,
2013-02-10 03:06:00,43.0,41.7,29.60,South,169,2.0,6.0,95,0.00,,,0.01,Wunderground v.1.15,2013-02-10 09:06:00,
2013-02-10 03:11:00,43.1,41.8,29.59,ESE,105,4.0,6.0,95,0.10,,,0.02,Wunderground v.1.15,2013-02-10 09:11:00,
2013-02-10 03:16:00,43.2,41.9,29.59,SSE,153,4.0,9.0,95,0.10,,,0.03,Wunderground v.1.15,2013-02-10 09:16:00,
2013-02-10 03:21:00,43.2,41.9,29.58,SSE,161,3.0,7.0,95,0.18,,,0.04,Wunderground v.1.15,2013-02-10 09:21:00,
2013-02-10 03:26:00,43.2,41.9,29.57,SSE,157,4.0,7.0,95,0.07,,,0.04,Wunderground v.1.15,2013-02-10 09:26:00,
2013-02-10 03:31:00,43.2,41.9,29.57,South,175,4.0,5.0,95,0.32,,,0.06,Wunderground v.1.15,2013-02-10 09:31:00,
2013-02-10 03:36:00,43.2,41.9,29.55,ENE,74,3.0,6.0,95,0.09,,,0.06,Wunderground v.1.15,2013-02-10 09:36:00,
2013-02-10 03:41:00,43.2,41.9,29.55,SSE,154,3.0,5.0,95,0.06,,,0.07,Wunderground v.1.15,2013-02-10 09:41:00,
2013-02-10 03:46:00,43.3,42.0,29.55,SSE,167,2.0,7.0,95,0.06,,,0.07,Wunderground v.1.15,2013-02-10 09:46:00,
2013-02-10 03:51:00,43.4,42.1,29.54,SE,128,5.0,7.0,95,0.05,,,0.07,Wunderground v.1.15,2013-02-10 09:51:00,
2013-02-10 03:56:00,43.7,42.4,29.53,SSE,160,4.0,7.0,95,0.00,,,0.07,Wunderground v.1.15,2013-02-10 09:56:00,
2013-02-10 04:01:00,44.0,42.7,29.53,SE,127,5.0,8.0,95,0.00,,,0.07,Wunderground v.1.15,2013-02-10 10:01:00,
2013-02-10 04:06:00,44.3,43.0,29.53,South,183,4.0,10.0,95,0.00,,,0.07,Wunderground v.1.15,2013-02-10 10:06:00,
2013-02-10 04:11:00,44.5,43.2,29.54,SE,144,10.0,10.0,95,0.00,,,0.07,Wunderground v.1.15,2013-02-10 10:11:00,
2013-02-10 04:16:00,44.7,43.1,29.53,SW,214,4.0,10.0,94,0.00,,,0.07,Wunderground v.1.15,2013-02-10 10:16:00,
2013-02-10 04:21:00,44.9,43.3,29.53,ESE,114,5.0,8.0,94,0.00,,,0.07,Wunderground v.1.15,2013-02-10 10:21:00,
2013-02-10 04:26:00,45.0,43.4,29.52,South,178,4.0,9.0,94,0.00,,,0.07,Wunderground v.1.15,2013-02-10 10:26:00,
2013-02-10 04:31:00,45.1,43.5,29.52,SSE,167,3.0,7.0,94,0.00,,,0.07,Wunderground v.1.15,2013-02-10 10:31:00,
2013-02-10 04:36:00,45.2,43.6,29.52,SE,134,7.0,10.0,94,0.00,,,0.07,Wunderground v.1.15,2013-02-10 10:36:00,
2013-02-10 04:41:00,45.3,43.7,29.52,SSE,163,6.0,6.0,94,0.00,,,0.07,Wunderground v.1.15,2013-02-10 10:41:00,
2013-02-10 04:46:00,45.4,43.8,29.52,SSW,202,2.0,8.0,94,0.00,,,0.07,Wunderground v.1.15,2013-02-10 10:46:00,
2013-02-10 04:51:00,45.4,43.8,29.52,SSE,155,4.0,6.0,94,0.00,,,0.07,Wunderground v.1.15,2013-02-10 10:51:00,
2013-02-10 04:56:00,45.4,43.8,29.52,SE,126,6.0,13.0,94,0.00,,,0.07,Wunderground v.1.15,2013-02-10 10:56:00,
2013-02-10 05:01:00,45.4,43.8,29.51,SE,136,5.0,10.0,94,0.00,,,0.07,Wunderground v.1.15,2013-02-10 11:01:00,
2013-02-10 05:06:00,45.5,43.9,29.51,South,187,6.0,11.0,94,0.00,,,0.07,Wunderground v.1.15,2013-02-10 11:06:00,
2013-02-10 05:11:00,45.5,43.9,29.50,SSE,163,4.0,8.0,94,0.00,,,0.07,Wunderground v.1.15,2013-02-10 11:11:00,
2013-02-10 05:16:00,45.5,43.9,29.50,SE,138,4.0,11.0,94,0.00,,,0.07,Wunderground v.1.15,2013-02-10 11:16:00,
2013-02-10 05:21:00,45.4,43.8,29.50,SSW,213,3.0,8.0,94,0.00,,,0.07,Wunderground v.1.15,2013-02-10 11:21:00,
2013-02-10 05:26:00,45.4,43.8,29.50,SSE,153,6.0,8.0,94,0.00,,,0.07,Wunderground v.1.15,2013-02-10 11:26:00,
2013-02-10 05:31:00,45.4,43.8,29.50,South,170,5.0,8.0,94,0.00,,,0.07,Wunderground v.1.15,2013-02-10 11:31:00,
2013-02-10 05:36:00,45.4,43.8,29.50,South,180,4.0,10.0,94,0.00,,,0.07,Wunderground v.1.15,2013-02-10 11:36:00,
2013-02-10 05:41:00,45.4,43.8,29.50,SSE,151,2.0,7.0,94,0.00,,,0.07,Wunderground v.1.15,2013-02-10 11:41:00,
2013-02-10 05:46:00,45.4,43.8,29.49,SSE,165,3.0,9.0,94,0.00,,,0.07,Wunderground v.1.15,2013-02-10 11:46:00,
2013-02-10 05:51:00,45.4,43.8,29.49,South,169,5.0,7.0,94,0.00,,,0.07,Wunderground v.1.15,2013-02-10 11:51:00,
2013-02-10 05:56:00,45.4,43.8,29.49,ESE,120,2.0,8.0,94,0.00,,,0.07,Wunderground v.1.15,2013-02-10 11:56:00,
2013-02-10 06:01:00,45.4,43.8,29.49,WSW,257,4.0,6.0,94,0.00,,,0.07,Wunderground v.1.15,2013-02-10 12:01:00,
2013-02-10 06:06:00,45.4,43.8,29.49,South,172,1.0,7.0,94,0.00,,,0.07,Wunderground v.1.15,2013-02-10 12:06:00,
2013-02-10 06:11:00,45.5,43.9,29.48,SE,135,2.0,4.0,94,0.00,,,0.07,Wunderground v.1.15,2013-02-10 12:11:00,
2013-02-10 06:16:00,45.6,44.0,29.48,South,176,3.0,9.0,94,0.00,,,0.07,Wunderground v.1.15,2013-02-10 12:16:00,
2013-02-10 06:21:00,45.8,44.2,29.48,SSW,198,4.0,9.0,94,0.00,,,0.07,Wunderground v.1.15,2013-02-10 12:21:00,
2013-02-10 06:26:00,46.1,44.5,29.47,South,180,2.0,9.0,94,0.00,,,0.07,Wunderground v.1.15,2013-02-10 12:26:00,
2013-02-10 06:31:00,46.3,44.7,29.47,SSW,205,4.0,8.0,94,0.00,,,0.07,Wunderground v.1.15,2013-02-10 12:31:00,
2013-02-10 06:36:00,46.7,45.1,29.48,SSE,148,3.0,11.0,94,0.00,,,0.07,Wunderground v.1.15,2013-02-10 12:36:00,
2013-02-10 06:41:00,47.0,45.1,29.48,SW,230,4.0,7.0,93,0.00,,,0.07,Wunderground v.1.15,2013-02-10 12:41:00,
2013-02-10 06:46:00,47.2,45.0,29.48,West,265,11.0,13.0,92,0.00,,,0.07,Wunderground v.1.15,2013-02-10 12:46:00,
2013-02-10 06:51:00,47.4,44.9,29.48,SSW,211,5.0,5.0,91,0.00,,,0.08,Wunderground v.1.15,2013-02-10 12:51:00,
2013-02-10 06:56:00,47.5,44.7,29.48,South,178,3.0,14.0,90,0.00,,,0.08,Wunderground v.1.15,2013-02-10 12:56:00,
2013-02-10 07:01:00,47.6,44.8,29.47,SE,145,7.0,8.0,90,0.00,,,0.08,Wunderground v.1.15,2013-02-10 13:01:00,
2013-02-10 07:06:00,47.5,44.4,29.47,West,266,9.0,13.0,89,0.00,,,0.08,Wunderground v.1.15,2013-02-10 13:06:00,
2013-02-10 07:11:00,47.4,44.3,29.47,SW,222,4.0,5.0,89,0.00,,,0.08,Wunderground v.1.15,2013-02-10 13:11:00,
2013-02-10 07:16:00,47.4,44.0,29.47,West,265,4.0,12.0,88,0.00,,,0.08,Wunderground v.1.15,2013-02-10 13:16:00,
2013-02-10 07:21:00,47.3,43.9,29.47,SSE,163,7.0,12.0,88,0.00,,,0.08,Wunderground v.1.15,2013-02-10 13:21:00,
2013-02-10 07:26:00,47.2,44.1,29.46,South,181,3.0,12.0,89,0.00,,,0.08,Wunderground v.1.15,2013-02-10 13:26:00,
2013-02-10 07:31:00,47.0,43.6,29.46,SSE,155,5.0,7.0,88,0.00,,,0.08,Wunderground v.1.15,2013-02-10 13:31:00,
2013-02-10 07:36:00,47.0,43.6,29.46,NE,55,3.0,11.0,88,0.00,,,0.08,Wunderground v.1.15,2013-02-10 13:36:00,
2013-02-10 07:41:00,46.9,43.5,29.46,SE,126,2.0,9.0,88,0.00,,,0.08,Wunderground v.1.15,2013-02-10 13:41:00,
2013-02-10 07:46:00,46.9,43.5,29.46,West,262,4.0,11.0,88,0.00,,,0.08,Wunderground v.1.15,2013-02-10 13:46:00,
2013-02-10 07:51:00,47.0,43.6,29.45,South,169,7.0,10.0,88,0.00,,,0.08,Wunderground v.1.15,2013-02-10 13:51:00,
2013-02-10 07:56:00,47.0,43.6,29.45,SSW,193,6.0,10.0,88,0.00,,,0.08,Wunderground v.1.15,2013-02-10 13:56:00,
2013-02-10 08:01:00,47.1,43.7,29.45,SW,216,2.0,7.0,88,0.00,,,0.08,Wunderground v.1.15,2013-02-10 14:01:00,
2013-02-10 08:06:00,47.2,43.5,29.45,SW,227,7.0,9.0,87,0.00,,,0.08,Wunderground v.1.15,2013-02-10 14:06:00,
2013-02-10 08:11:00,47.3,43.3,29.45,SSE,150,3.0,9.0,86,0.00,,,0.08,Wunderground v.1.15,2013-02-10 14:11:00,
2013-02-10 08:16:00,47.4,43.4,29.45,ESE,120,9.0,11.0,86,0.00,,,0.08,Wunderground v.1.15,2013-02-10 14:16:00,
2013-02-10 08:21:00,47.7,43.4,29.45,South,184,2.0,12.0,85,0.00,,,0.08,Wunderground v.1.15,2013-02-10 14:21:00,
2013-02-10 08:26:00,47.9,43.3,29.45,WSW,251,4.0,12.0,84,0.00,,,0.08,Wunderground v.1.15,2013-02-10 14:26:00,
2013-02-10 08:31:00,48.1,43.2,29.44,SW,234,4.0,12.0,83,0.00,,,0.08,Wunderground v.1.15,2013-02-10 14:31:00,
2013-02-10 08:36:00,48.5,42.9,29.45,SSE,148,4.0,14.0,81,0.00,,,0.08,Wunderground v.1.15,2013-02-10 14:36:00,
2013-02-10 08:41:00,48.8,42.6,29.44,NE,44,3.0,10.0,79,0.00,,,0.08,Wunderground v.1.15,2013-02-10 14:41:00,
2013-02-10 08:46:00,49.0,42.1,29.44,SE,139,4.0,12.0,77,0.00,,,0.08,Wunderground v.1.15,2013-02-10 14:46:00,
2013-02-10 08:51:00,49.2,41.6,29.45,West,264,8.0,17.0,75,0.00,,,0.08,Wunderground v.1.15,2013-02-10 14:51:00,
2013-02-10 08:56:00,49.2,40.6,29.45,SW,224,4.0,17.0,72,0.00,,,0.08,Wunderground v.1.15,2013-02-10 14:56:00,
2013-02-10 09:01:00,49.4,40.0,29.44,SW,224,1.0,12.0,70,0.00,,,0.08,Wunderground v.1.15,2013-02-10 15:01:00,
2013-02-10 09:06:00,49.6,40.6,29.44,SSW,207,4.0,18.0,71,0.00,,,0.08,Wunderground v.1.15,2013-02-10 15:06:00,
2013-02-10 09:11:00,49.2,37.9,29.45,West,269,2.0,13.0,65,0.00,,,0.08,Wunderground v.1.15,2013-02-10 15:11:00,
2013-02-10 09:16:00,48.6,36.2,29.45,SW,215,6.0,19.0,62,0.00,,,0.08,Wunderground v.1.15,2013-02-10 15:16:00,
2013-02-10 09:21:00,48.2,36.2,29.45,SW,225,3.0,12.0,63,0.00,,,0.08,Wunderground v.1.15,2013-02-10 15:21:00,
2013-02-10 09:26:00,48.3,35.9,29.45,SW,223,3.0,13.0,62,0.00,,,0.08,Wunderground v.1.15,2013-02-10 15:26:00,
2013-02-10 09:31:00,48.3,35.0,29.45,WSW,237,10.0,13.0,60,0.00,,,0.08,Wunderground v.1.15,2013-02-10 15:31:00,
2013-02-10 09:36:00,47.8,34.2,29.45,WSW,248,2.0,14.0,59,0.00,,,0.08,Wunderground v.1.15,2013-02-10 15:36:00,
2013-02-10 09:41:00,47.2,34.0,29.46,NNW,338,3.0,12.0,60,0.00,,,0.08,Wunderground v.1.15,2013-02-10 15:41:00,
2013-02-10 09:46:00,47.0,33.8,29.46,SSE,163,3.0,16.0,60,0.00,,,0.08,Wunderground v.1.15,2013-02-10 15:46:00,
2013-02-10 09:51:00,46.9,33.7,29.47,WSW,250,14.0,14.0,60,0.00,,,0.08,Wunderground v.1.15,2013-02-10 15:51:00,
2013-02-10 09:56:00,46.7,32.7,29.47,West,267,4.0,14.0,58,0.00,,,0.08,Wunderground v.1.15,2013-02-10 15:56:00,
2013-02-10 10:01:00,46.3,32.7,29.47,WSW,240,8.0,13.0,59,0.00,,,0.08,Wunderground v.1.15,2013-02-10 16:01:00,
2013-02-10 10:06:00,46.3,32.7,29.47,WSW,244,4.0,13.0,59,0.00,,,0.08,Wunderground v.1.15,2013-02-10 16:06:00,
2013-02-10 10:11:00,46.4,32.8,29.47,SW,221,1.0,8.0,59,0.00,,,0.08,Wunderground v.1.15,2013-02-10 16:11:00,
2013-02-10 10:16:00,46.8,33.2,29.46,West,259,5.0,11.0,59,0.00,,,0.08,Wunderground v.1.15,2013-02-10 16:16:00,
2013-02-10 10:21:00,46.8,31.9,29.47,WSW,251,11.0,16.0,56,0.00,,,0.08,Wunderground v.1.15,2013-02-10 16:21:00,
2013-02-10 10:26:00,46.4,32.4,29.47,SSW,213,2.0,16.0,58,0.00,,,0.08,Wunderground v.1.15,2013-02-10 16:26:00,
2013-02-10 10:31:00,46.3,32.3,29.47,WSW,237,6.0,14.0,58,0.00,,,0.08,Wunderground v.1.15,2013-02-10 16:31:00,
2013-02-10 10:37:00,46.6,32.2,29.47,ENE,74,3.0,15.0,57,0.00,,,0.08,Wunderground v.1.15,2013-02-10 16:37:00,
2013-02-10 10:42:00,46.9,32.9,29.47,SSW,210,3.0,15.0,58,0.00,,,0.08,Wunderground v.1.15,2013-02-10 16:42:00,
2013-02-10 10:47:00,46.8,32.8,29.47,West,272,3.0,15.0,58,0.00,,,0.08,Wunderground v.1.15,2013-02-10 16:47:00,
2013-02-10 10:52:00,47.2,33.6,29.47,SW,228,3.0,9.0,59,0.00,,,0.08,Wunderground v.1.15,2013-02-10 16:52:00,
2013-02-10 10:56:00,47.6,33.1,29.47,WSW,241,4.0,14.0,57,0.00,,,0.08,Wunderground v.1.15,2013-02-10 16:56:00,
2013-02-10 11:02:00,47.4,32.9,29.47,WSW,238,8.0,19.0,57,0.00,,,0.08,Wunderground v.1.15,2013-02-10 17:02:00,
2013-02-10 11:06:00,47.4,33.4,29.47,SSE,147,12.0,19.0,58,0.00,,,0.08,Wunderground v.1.15,2013-02-10 17:06:00,
2013-02-10 11:12:00,47.7,33.2,29.48,WSW,246,7.0,22.0,57,0.00,,,0.08,Wunderground v.1.15,2013-02-10 17:12:00,
2013-02-10 11:17:00,47.6,33.1,29.48,WSW,250,6.0,22.0,57,0.00,,,0.08,Wunderground v.1.15,2013-02-10 17:17:00,
2013-02-10 11:22:00,47.6,33.5,29.48,WSW,242,3.0,9.0,58,0.00,,,0.08,Wunderground v.1.15,2013-02-10 17:22:00,
2013-02-10 11:27:00,47.8,33.3,29.48,West,272,8.0,15.0,57,0.00,,,0.08,Wunderground v.1.15,2013-02-10 17:27:00,
2013-02-10 11:32:00,47.7,32.3,29.49,SSW,194,6.0,15.0,55,0.00,,,0.08,Wunderground v.1.15,2013-02-10 17:32:00,
2013-02-10 11:37:00,47.3,31.9,29.48,SW,234,5.0,15.0,55,0.00,,,0.08,Wunderground v.1.15,2013-02-10 17:37:00,
2013-02-10 11:42:00,47.4,31.1,29.48,SW,234,6.0,18.0,53,0.00,,,0.08,Wunderground v.1.15,2013-02-10 17:42:00,
2013-02-10 11:47:00,47.5,31.2,29.48,WSW,256,9.0,18.0,53,0.00,,,0.08,Wunderground v.1.15,2013-02-10 17:47:00,
2013-02-10 11:52:00,47.2,30.5,29.48,WSW,242,10.0,19.0,52,0.00,,,0.08,Wunderground v.1.15,2013-02-10 17:52:00,
2013-02-10 11:57:00,47.4,31.1,29.48,WSW,241,5.0,19.0,53,0.00,,,0.08,Wunderground v.1.15,2013-02-10 17:57:00,
2013-02-10 12:02:00,48.3,31.9,29.48,SSW,205,1.0,11.0,53,0.00,,,0.08,Wunderground v.1.15,2013-02-10 18:02:00,
2013-02-10 12:07:00,48.9,31.5,29.48,SW,236,8.0,17.0,51,0.00,,,0.08,Wunderground v.1.15,2013-02-10 18:07:00,
2013-02-10 12:12:00,49.3,31.9,29.48,SE,146,4.0,13.0,51,0.00,,,0.08,Wunderground v.1.15,2013-02-10 18:12:00,
2013-02-10 12:17:00,49.6,31.7,29.49,WNW,294,4.0,19.0,50,0.00,,,0.08,Wunderground v.1.15,2013-02-10 18:17:00,
2013-02-10 12:22:00,49.2,31.8,29.49,WSW,241,13.0,13.0,51,0.00,,,0.08,Wunderground v.1.15,2013-02-10 18:22:00,
2013-02-10 12:27:00,48.8,31.0,29.49,SW,221,7.0,18.0,50,0.00,,,0.08,Wunderground v.1.15,2013-02-10 18:27:00,
2013-02-10 12:32:00,48.1,30.3,29.49,SW,230,15.0,16.0,50,0.00,,,0.08,Wunderground v.1.15,2013-02-10 18:32:00,
2013-02-10 12:37:00,47.6,30.3,29.48,SW,234,7.0,16.0,51,0.00,,,0.08,Wunderground v.1.15,2013-02-10 18:37:00,
2013-02-10 12:42:00,48.3,31.0,29.49,WSW,248,4.0,16.0,51,0.00,,,0.08,Wunderground v.1.15,2013-02-10 18:42:00,
2013-02-10 12:47:00,48.8,30.0,29.48,SSW,200,17.0,17.0,48,0.00,,,0.08,Wunderground v.1.15,2013-02-10 18:47:00,
2013-02-10 12:52:00,48.8,30.5,29.48,West,262,11.0,15.0,49,0.00,,,0.08,Wunderground v.1.15,2013-02-10 18:52:00,
2013-02-10 12:57:00,48.8,30.0,29.48,WSW,250,1.0,17.0,48,0.00,,,0.08,Wunderground v.1.15,2013-02-10 18:57:00,
2013-02-10 13:02:00,49.3,29.9,29.49,SW,233,8.0,13.0,47,0.00,,,0.08,Wunderground v.1.15,2013-02-10 19:02:00,
2013-02-10 13:07:00,49.5,29.6,29.48,SW,221,3.0,16.0,46,0.00,,,0.08,Wunderground v.1.15,2013-02-10 19:07:00,
2013-02-10 13:12:00,49.6,30.2,29.49,WNW,291,4.0,16.0,47,0.00,,,0.08,Wunderground v.1.15,2013-02-10 19:12:00,
2013-02-10 13:17:00,48.9,29.5,29.49,WSW,247,15.0,18.0,47,0.00,,,0.08,Wunderground v.1.15,2013-02-10 19:17:00,
2013-02-10 13:22:00,49.0,30.1,29.49,SW,234,6.0,15.0,48,0.00,,,0.08,Wunderground v.1.15,2013-02-10 19:22:00,
2013-02-10 13:27:00,49.2,29.8,29.49,WSW,239,14.0,18.0,47,0.00,,,0.08,Wunderground v.1.15,2013-02-10 19:27:00,
2013-02-10 13:32:00,48.3,29.5,29.50,West,277,6.0,17.0,48,0.00,,,0.08,Wunderground v.1.15,2013-02-10 19:32:00,
2013-02-10 13:37:00,47.9,29.1,29.50,WSW,242,5.0,17.0,48,0.00,,,0.08,Wunderground v.1.15,2013-02-10 19:37:00,
2013-02-10 13:42:00,47.6,29.4,29.50,WSW,245,7.0,12.0,49,0.00,,,0.08,Wunderground v.1.15,2013-02-10 19:42:00,
2013-02-10 13:47:00,47.4,29.2,29.50,WSW,252,4.0,17.0,49,0.00,,,0.08,Wunderground v.1.15,2013-02-10 19:47:00,
2013-02-10 13:52:00,47.4,29.7,29.51,WSW,245,9.0,12.0,50,0.00,,,0.08,Wunderground v.1.15,2013-02-10 19:52:00,
2013-02-10 13:57:00,47.5,29.8,29.51,West,267,2.0,12.0,50,0.00,,,0.08,Wunderground v.1.15,2013-02-10 19:57:00,
2013-02-10 14:02:00,47.6,29.9,29.51,WSW,243,7.0,12.0,50,0.00,,,0.08,Wunderground v.1.15,2013-02-10 20:02:00,
2013-02-10 14:07:00,47.7,30.4,29.52,SSW,211,3.0,12.0,51,0.00,,,0.08,Wunderground v.1.15,2013-02-10 20:07:00,
2013-02-10 14:12:00,47.6,29.9,29.52,SSW,203,4.0,9.0,50,0.00,,,0.08,Wunderground v.1.15,2013-02-10 20:12:00,
2013-02-10 14:17:00,47.6,29.9,29.52,WSW,243,6.0,19.0,50,0.00,,,0.08,Wunderground v.1.15,2013-02-10 20:17:00,
2013-02-10 14:22:00,47.3,29.6,29.53,WSW,240,4.0,11.0,50,0.00,,,0.08,Wunderground v.1.15,2013-02-10 20:22:00,
2013-02-10 14:27:00,46.9,29.7,29.53,West,275,4.0,21.0,51,0.00,,,0.08,Wunderground v.1.15,2013-02-10 20:27:00,
2013-02-10 14:32:00,46.8,29.6,29.53,SW,229,5.0,12.0,51,0.00,,,0.08,Wunderground v.1.15,2013-02-10 20:32:00,
2013-02-10 14:37:00,46.7,29.5,29.54,WSW,255,5.0,13.0,51,0.00,,,0.08,Wunderground v.1.15,2013-02-10 20:37:00,
2013-02-10 14:42:00,46.7,30.0,29.55,NE,40,4.0,9.0,52,0.00,,,0.08,Wunderground v.1.15,2013-02-10 20:42:00,
2013-02-10 14:47:00,46.4,29.2,29.55,WSW,256,8.0,18.0,51,0.00,,,0.08,Wunderground v.1.15,2013-02-10 20:47:00,
2013-02-10 14:52:00,46.1,29.4,29.55,SW,232,9.0,11.0,52,0.00,,,0.08,Wunderground v.1.15,2013-02-10 20:52:00,
2013-02-10 14:58:00,45.9,29.2,29.55,WNW,298,8.0,18.0,52,0.00,,,0.08,Wunderground v.1.15,2013-02-10 20:58:00,
2013-02-10 15:03:00,46.0,29.3,29.55,West,264,11.0,14.0,52,0.00,,,0.08,Wunderground v.1.15,2013-02-10 21:03:00,
2013-02-10 15:08:00,45.8,28.7,29.56,SW,234,8.0,18.0,51,0.00,,,0.08,Wunderground v.1.15,2013-02-10 21:08:00,
2013-02-10 15:13:00,45.7,29.1,29.57,WSW,252,2.0,11.0,52,0.00,,,0.08,Wunderground v.1.15,2013-02-10 21:13:00,
2013-02-10 15:18:00,45.9,29.2,29.57,West,268,4.0,11.0,52,0.00,,,0.08,Wunderground v.1.15,2013-02-10 21:18:00,
2013-02-10 15:23:00,45.8,28.7,29.57,WSW,251,8.0,13.0,51,0.00,,,0.08,Wunderground v.1.15,2013-02-10 21:23:00,
2013-02-10 15:28:00,45.5,28.4,29.58,WNW,297,9.0,16.0,51,0.00,,,0.08,Wunderground v.1.15,2013-02-10 21:28:00,
2013-02-10 15:33:00,45.5,28.9,29.58,West,265,3.0,9.0,52,0.00,,,0.08,Wunderground v.1.15,2013-02-10 21:33:00,
2013-02-10 15:38:00,45.7,28.6,29.58,SW,232,5.0,19.0,51,0.00,,,0.08,Wunderground v.1.15,2013-02-10 21:38:00,
2013-02-10 15:43:00,45.5,28.4,29.58,SSW,193,6.0,13.0,51,0.00,,,0.08,Wunderground v.1.15,2013-02-10 21:43:00,
2013-02-10 15:48:00,45.4,28.3,29.58,WSW,241,6.0,17.0,51,0.00,,,0.08,Wunderground v.1.15,2013-02-10 21:48:00,
2013-02-10 15:53:00,45.2,28.1,29.58,WSW,250,4.0,13.0,51,0.00,,,0.08,Wunderground v.1.15,2013-02-10 21:53:00,
2013-02-10 15:58:00,45.4,28.3,29.59,SW,229,6.0,13.0,51,0.00,,,0.08,Wunderground v.1.15,2013-02-10 21:58:00,
2013-02-10 16:03:00,45.3,28.7,29.59,South,188,5.0,16.0,52,0.00,,,0.08,Wunderground v.1.15,2013-02-10 22:03:00,
2013-02-10 16:08:00,45.3,28.7,29.60,West,273,5.0,16.0,52,0.00,,,0.08,Wunderground v.1.15,2013-02-10 22:08:00,
2013-02-10 16:13:00,45.1,28.5,29.60,WNW,294,4.0,15.0,52,0.00,,,0.08,Wunderground v.1.15,2013-02-10 22:13:00,
2013-02-10 16:18:00,44.8,28.7,29.61,WSW,243,5.0,16.0,53,0.00,,,0.08,Wunderground v.1.15,2013-02-10 22:18:00,
2013-02-10 16:23:00,44.6,28.0,29.61,WSW,245,7.0,17.0,52,0.00,,,0.08,Wunderground v.1.15,2013-02-10 22:23:00,
2013-02-10 16:28:00,44.3,28.2,29.62,SW,234,12.0,17.0,53,0.00,,,0.08,Wunderground v.1.15,2013-02-10 22:28:00,
2013-02-10 16:33:00,44.0,28.0,29.62,West,261,7.0,20.0,53,0.00,,,0.08,Wunderground v.1.15,2013-02-10 22:33:00,
2013-02-10 16:38:00,43.7,28.1,29.63,West,273,3.0,20.0,54,0.00,,,0.08,Wunderground v.1.15,2013-02-10 22:38:00,
2013-02-10 16:43:00,43.6,28.0,29.63,NW,308,2.0,11.0,54,0.00,,,0.08,Wunderground v.1.15,2013-02-10 22:43:00,
2013-02-10 16:48:00,43.4,27.8,29.63,WSW,247,4.0,12.0,54,0.00,,,0.08,Wunderground v.1.15,2013-02-10 22:48:00,
2013-02-10 16:53:00,43.3,28.2,29.64,SW,233,4.0,10.0,55,0.00,,,0.08,Wunderground v.1.15,2013-02-10 22:53:00,
2013-02-10 16:58:00,43.1,28.0,29.64,SW,226,5.0,16.0,55,0.00,,,0.08,Wunderground v.1.15,2013-02-10 22:58:00,
2013-02-10 17:03:00,43.0,28.4,29.65,WSW,239,6.0,11.0,56,0.00,,,0.08,Wunderground v.1.15,2013-02-10 23:03:00,
2013-02-10 17:08:00,42.8,27.7,29.65,WSW,237,2.0,16.0,55,0.00,,,0.08,Wunderground v.1.15,2013-02-10 23:08:00,
2013-02-10 17:13:00,42.8,28.2,29.66,West,273,8.0,11.0,56,0.00,,,0.08,Wunderground v.1.15,2013-02-10 23:13:00,
2013-02-10 17:18:00,42.6,28.0,29.67,WSW,242,5.0,11.0,56,0.00,,,0.08,Wunderground v.1.15,2013-02-10 23:18:00,
2013-02-10 17:23:00,42.4,27.4,29.67,West,265,9.0,14.0,55,0.00,,,0.08,Wunderground v.1.15,2013-02-10 23:23:00,
2013-02-10 17:28:00,42.2,27.6,29.67,West,266,3.0,17.0,56,0.00,,,0.08,Wunderground v.1.15,2013-02-10 23:28:00,
2013-02-10 17:33:00,42.1,27.5,29.67,WSW,242,9.0,15.0,56,0.00,,,0.08,Wunderground v.1.15,2013-02-10 23:33:00,
2013-02-10 17:38:00,42.0,27.4,29.68,SW,224,6.0,15.0,56,0.00,,,0.08,Wunderground v.1.15,2013-02-10 23:38:00,
2013-02-10 17:43:00,41.9,27.8,29.69,WSW,237,5.0,7.0,57,0.00,,,0.08,Wunderground v.1.15,2013-02-10 23:43:00,
2013-02-10 17:48:00,41.8,27.7,29.69,WNW,290,4.0,11.0,57,0.00,,,0.08,Wunderground v.1.15,2013-02-10 23:48:00,
2013-02-10 17:53:00,41.7,27.6,29.70,SW,234,5.0,7.0,57,0.00,,,0.08,Wunderground v.1.15,2013-02-10 23:53:00,
2013-02-10 17:58:00,41.5,27.8,29.70,West,267,2.0,11.0,58,0.00,,,0.08,Wunderground v.1.15,2013-02-10 23:58:00,
2013-02-10 18:03:00,41.4,27.3,29.71,West,277,4.0,13.0,57,0.00,,,0.08,Wunderground v.1.15,2013-02-11 00:03:00,
2013-02-10 18:08:00,41.2,27.5,29.71,WSW,244,1.0,13.0,58,0.00,,,0.08,Wunderground v.1.15,2013-02-11 00:08:00,
2013-02-10 18:13:00,41.1,27.4,29.72,WSW,241,2.0,8.0,58,0.00,,,0.08,Wunderground v.1.15,2013-02-11 00:13:00,
2013-02-10 18:18:00,41.1,27.4,29.72,WSW,258,3.0,8.0,58,0.00,,,0.08,Wunderground v.1.15,2013-02-11 00:18:00,
2013-02-10 18:23:00,41.0,27.3,29.72,WSW,252,2.0,11.0,58,0.00,,,0.08,Wunderground v.1.15,2013-02-11 00:23:00,
2013-02-10 18:28:00,40.9,26.8,29.73,West,263,2.0,11.0,57,0.00,,,0.08,Wunderground v.1.15,2013-02-11 00:28:00,
2013-02-10 18:33:00,40.9,27.2,29.73,NW,311,5.0,11.0,58,0.00,,,0.08,Wunderground v.1.15,2013-02-11 00:33:00,
2013-02-10 18:38:00,40.9,27.2,29.73,NNW,348,5.0,11.0,58,0.00,,,0.08,Wunderground v.1.15,2013-02-11 00:38:00,
2013-02-10 18:43:00,40.8,26.7,29.74,SW,221,2.0,8.0,57,0.00,,,0.08,Wunderground v.1.15,2013-02-11 00:43:00,
2013-02-10 18:48:00,40.7,27.1,29.74,NW,308,3.0,10.0,58,0.00,,,0.08,Wunderground v.1.15,2013-02-11 00:48:00,
2013-02-10 18:53:00,40.6,26.5,29.75,WNW,300,2.0,8.0,57,0.00,,,0.08,Wunderground v.1.15,2013-02-11 00:53:00,
2013-02-10 18:58:00,40.4,25.9,29.76,West,270,3.0,8.0,56,0.00,,,0.08,Wunderground v.1.15,2013-02-11 00:58:00,
2013-02-10 19:03:00,40.1,26.1,29.76,SW,232,5.0,10.0,57,0.00,,,0.08,Wunderground v.1.15,2013-02-11 01:03:00,
2013-02-10 19:08:00,39.9,26.3,29.76,West,279,2.0,10.0,58,0.00,,,0.08,Wunderground v.1.15,2013-02-11 01:08:00,
2013-02-10 19:13:00,39.8,26.6,29.77,West,278,5.0,7.0,59,0.00,,,0.08,Wunderground v.1.15,2013-02-11 01:13:00,
2013-02-10 19:18:00,39.7,26.5,29.77,West,279,3.0,11.0,59,0.00,,,0.08,Wunderground v.1.15,2013-02-11 01:18:00,
2013-02-10 19:23:00,39.7,26.5,29.77,NNE,26,2.0,12.0,59,0.00,,,0.08,Wunderground v.1.15,2013-02-11 01:23:00,
2013-02-10 19:28:00,39.7,26.5,29.77,SW,236,3.0,12.0,59,0.00,,,0.08,Wunderground v.1.15,2013-02-11 01:28:00,
2013-02-10 19:33:00,39.7,25.7,29.78,WSW,240,4.0,14.0,57,0.00,,,0.08,Wunderground v.1.15,2013-02-11 01:33:00,
2013-02-10 19:38:00,39.6,26.0,29.78,SSW,213,2.0,14.0,58,0.00,,,0.08,Wunderground v.1.15,2013-02-11 01:38:00,
2013-02-10 19:43:00,39.5,25.9,29.79,WSW,257,2.0,8.0,58,0.00,,,0.08,Wunderground v.1.15,2013-02-11 01:43:00,
2013-02-10 19:48:00,39.4,26.2,29.79,West,280,6.0,8.0,59,0.00,,,0.08,Wunderground v.1.15,2013-02-11 01:48:00,
2013-02-10 19:54:00,39.3,26.2,29.80,WNW,286,3.0,4.0,59,0.00,,,0.08,Wunderground v.1.15,2013-02-11 01:54:00,
2013-02-10 19:59:00,39.3,26.2,29.80,NW,315,3.0,9.0,59,0.00,,,0.08,Wunderground v.1.15,2013-02-11 01:59:00,
2013-02-10 20:04:00,39.2,25.6,29.80,SSW,205,3.0,10.0,58,0.00,,,0.08,Wunderground v.1.15,2013-02-11 02:04:00,
2013-02-10 20:09:00,39.2,25.6,29.81,West,269,3.0,10.0,58,0.00,,,0.08,Wunderground v.1.15,2013-02-11 02:09:00,
2013-02-10 20:14:00,39.2,25.2,29.81,WSW,240,2.0,8.0,57,0.00,,,0.08,Wunderground v.1.15,2013-02-11 02:14:00,
2013-02-10 20:19:00,39.0,25.0,29.81,SW,222,4.0,14.0,57,0.00,,,0.08,Wunderground v.1.15,2013-02-11 02:19:00,
2013-02-10 20:24:00,38.9,25.4,29.82,WNW,292,2.0,10.0,58,0.00,,,0.08,Wunderground v.1.15,2013-02-11 02:24:00,
2013-02-10 20:29:00,38.8,25.3,29.82,South,190,2.0,10.0,58,0.00,,,0.08,Wunderground v.1.15,2013-02-11 02:29:00,
2013-02-10 20:34:00,38.6,25.1,29.82,West,279,2.0,11.0,58,0.00,,,0.08,Wunderground v.1.15,2013-02-11 02:34:00,
2013-02-10 20:39:00,38.5,25.0,29.83,West,265,3.0,11.0,58,0.00,,,0.08,Wunderground v.1.15,2013-02-11 02:39:00,
2013-02-10 20:44:00,38.3,25.2,29.83,West,259,2.0,8.0,59,0.00,,,0.08,Wunderground v.1.15,2013-02-11 02:44:00,
2013-02-10 20:49:00,38.3,25.2,29.84,NW,304,3.0,8.0,59,0.00,,,0.08,Wunderground v.1.15,2013-02-11 02:49:00,
2013-02-10 20:54:00,38.2,25.1,29.84,West,275,1.0,10.0,59,0.00,,,0.08,Wunderground v.1.15,2013-02-11 02:54:00,
2013-02-10 20:59:00,38.0,25.3,29.84,West,277,3.0,10.0,60,0.00,,,0.08,Wunderground v.1.15,2013-02-11 02:59:00,
2013-02-10 21:04:00,37.9,25.6,29.85,SW,232,4.0,6.0,61,0.00,,,0.08,Wunderground v.1.15,2013-02-11 03:04:00,
2013-02-10 21:09:00,37.9,25.2,29.86,West,266,3.0,10.0,60,0.00,,,0.08,Wunderground v.1.15,2013-02-11 03:09:00,
2013-02-10 21:14:00,37.9,25.2,29.86,WNW,303,2.0,16.0,60,0.00,,,0.08,Wunderground v.1.15,2013-02-11 03:14:00,
2013-02-10 21:19:00,37.9,25.2,29.86,West,268,1.0,16.0,60,0.00,,,0.08,Wunderground v.1.15,2013-02-11 03:19:00,
2013-02-10 21:24:00,37.9,25.2,29.86,SW,217,1.0,7.0,60,0.00,,,0.08,Wunderground v.1.15,2013-02-11 03:24:00,
2013-02-10 21:29:00,37.9,25.6,29.86,SW,227,1.0,9.0,61,0.00,,,0.08,Wunderground v.1.15,2013-02-11 03:29:00,
2013-02-10 21:34:00,37.9,25.6,29.87,SW,225,3.0,6.0,61,0.00,,,0.08,Wunderground v.1.15,2013-02-11 03:34:00,
2013-02-10 21:39:00,38.0,25.7,29.87,WNW,288,1.0,9.0,61,0.00,,,0.08,Wunderground v.1.15,2013-02-11 03:39:00,
2013-02-10 21:44:00,38.0,25.7,29.87,West,271,1.0,8.0,61,0.00,,,0.08,Wunderground v.1.15,2013-02-11 03:44:00,
2013-02-10 21:49:00,38.0,25.7,29.88,West,279,2.0,8.0,61,0.00,,,0.08,Wunderground v.1.15,2013-02-11 03:49:00,
2013-02-10 21:54:00,38.0,25.7,29.88,WNW,292,4.0,13.0,61,0.00,,,0.08,Wunderground v.1.15,2013-02-11 03:54:00,
2013-02-10 21:59:00,38.2,25.9,29.88,West,277,2.0,13.0,61,0.00,,,0.08,Wunderground v.1.15,2013-02-11 03:59:00,
2013-02-10 22:04:00,38.3,26.0,29.88,West,280,2.0,12.0,61,0.00,,,0.08,Wunderground v.1.15,2013-02-11 04:04:00,
2013-02-10 22:09:00,38.5,25.8,29.88,West,274,0.0,12.0,60,0.00,,,0.08,Wunderground v.1.15,2013-02-11 04:09:00,
2013-02-10 22:14:00,38.6,25.9,29.89,West,269,1.0,6.0,60,0.00,,,0.08,Wunderground v.1.15,2013-02-11 04:14:00,
2013-02-10 22:19:00,38.8,26.1,29.89,WSW,241,1.0,11.0,60,0.00,,,0.08,Wunderground v.1.15,2013-02-11 04:19:00,
2013-02-10 22:24:00,39.0,25.9,29.89,West,264,1.0,4.0,59,0.00,,,0.08,Wunderground v.1.15,2013-02-11 04:24:00,
2013-02-10 22:29:00,39.1,25.6,29.89,NW,326,3.0,7.0,58,0.00,,,0.08,Wunderground v.1.15,2013-02-11 04:29:00,
2013-02-10 22:34:00,39.1,25.6,29.89,WSW,253,4.0,10.0,58,0.00,,,0.08,Wunderground v.1.15,2013-02-11 04:34:00,
2013-02-10 22:39:00,39.2,25.6,29.89,West,268,2.0,10.0,58,0.00,,,0.08,Wunderground v.1.15,2013-02-11 04:39:00,
2013-02-10 22:44:00,39.3,26.2,29.90,West,265,3.0,8.0,59,0.00,,,0.08,Wunderground v.1.15,2013-02-11 04:44:00,
2013-02-10 22:49:00,39.5,26.3,29.90,WSW,250,3.0,8.0,59,0.00,,,0.08,Wunderground v.1.15,2013-02-11 04:49:00,
2013-02-10 22:54:00,39.6,26.4,29.91,West,263,2.0,9.0,59,0.00,,,0.08,Wunderground v.1.15,2013-02-11 04:54:00,
2013-02-10 22:59:00,39.7,26.5,29.91,WSW,246,7.0,9.0,59,0.00,,,0.08,Wunderground v.1.15,2013-02-11 04:59:00,
2013-02-10 23:00:00,39.7,26.5,29.91,NW,306,2.0,3.0,59,0.00,,,0.08,Wunderground v.1.15,2013-02-11 05:00:00,
2013-02-10 23:05:00,39.7,26.9,29.91,West,271,2.0,7.0,60,0.00,,,0.08,Wunderground v.1.15,2013-02-11 05:05:00,
2013-02-10 23:10:00,39.7,26.5,29.91,West,271,3.0,4.0,59,0.00,,,0.08,Wunderground v.1.15,2013-02-11 05:10:00,
2013-02-10 23:15:00,39.7,26.5,29.92,West,264,2.0,6.0,59,0.00,,,0.08,Wunderground v.1.15,2013-02-11 05:15:00,
2013-02-10 23:20:00,39.6,26.0,29.92,ESE,113,1.0,5.0,58,0.00,,,0.08,Wunderground v.1.15,2013-02-11 05:20:00,
2013-02-10 23:25:00,39.5,25.9,29.92,WNW,296,6.0,9.0,58,0.00,,,0.08,Wunderground v.1.15,2013-02-11 05:25:00,
2013-02-10 23:30:00,39.3,25.7,29.92,WSW,240,2.0,4.0,58,0.00,,,0.08,Wunderground v.1.15,2013-02-11 05:30:00,
2013-02-10 23:35:00,39.2,25.6,29.92,WSW,240,6.0,8.0,58,0.00,,,0.08,Wunderground v.1.15,2013-02-11 05:35:00,
2013-02-10 23:40:00,39.0,25.9,29.93,NNE,23,5.0,5.0,59,0.00,,,0.08,Wunderground v.1.15,2013-02-11 05:40:00,
2013-02-10 23:45:00,38.9,26.2,29.93,West,263,2.0,10.0,60,0.00,,,0.08,Wunderground v.1.15,2013-02-11 05:45:00,
2013-02-10 23:50:00,38.7,26.0,29.94,West,278,2.0,4.0,60,0.00,,,0.08,Wunderground v.1.15,2013-02-11 05:50:00,
2013-02-10 23:55:00,38.6,26.3,29.94,SW,229,2.0,8.0,61,0.00,,,0.08,Wunderground v.1.15,2013-02-11 05:55:00,